Snowfall_Accumulation
0.2 0.2 0.2 0.1 0.2 0.2 0.1 0.2 0.5 0.6 0.1 0.0 0.0 0.0 0.0 0.0 0.1 0.1 0.2 0.2 0.0 0.0 0.1 0.1 0.1 0.0 0.0 0.0 0.0 0.0 0.0 0.0 0.0 0.0 0.0 0.0 0.0 0.0
0.3 0.2 0.1 0.1 0.2 0.2 0.1 0.2 0.3 0.6 0.6 0.1 0.0 0.0 0.0 0.0 0.0 0.0 0.1 0.1 0.1 0.1 0.1 0.1 0.1 0.1 0.1 0.1 0.1 0.0 0.0 0.0 0.0 0.0 0.0 0.0 0.0 0.0
0.3 0.3 0.3 0.3 0.2 0.2 0.2 0.2 0.3 0.4 0.7 0.2 0.1 0.1 0.1 0.1 0.0 0.0 0.0 0.1 0.1 0.1 0.2 0.2 0.2 0.2 0.2 0.1 0.1 0.1 0.1 0.1 0.0 0.0 0.0 0.0 0.0 0.0
0.3 0.2 0.3 0.4 0.3 0.3 0.2 0.4 0.4 0.4 1.1 1.2 0.4 0.2 0.3 0.2 0.2 0.1 0.0 0.0 0.1 0.0 0.1 0.2 0.2 0.3 0.3 0.3 0.2 0.2 0.1 0.1 0.1 0.0 0.0 0.0 0.0 0.0
0.2 0.3 0.3 0.4 0.6 0.5 0.7 0.4 0.5 0.6 0.9 1.3 0.8 0.2 0.2 0.1 0.2 0.1 0.1 0.0 0.0 0.0 0.0 0.1 0.1 0.2 0.4 0.4 0.4 0.3 0.3 0.2 0.1 0.1 0.1 0.1 0.1 0.1
0.5 0.5 0.8 0.8 0.9 0.9 1.0 0.9 1.2 1.2 1.4 1.7 1.8 1.2 1.0 0.5 0.5 0.4 0.3 0.2 0.1 0.1 0.1 0.1 0.2 0.3 0.3 0.4 0.4 0.4 0.4 0.5 0.6 0.4 0.4 0.3 0.2 0.1
0.8 0.6 0.6 0.5 0.6 0.8 1.2 1.5 2.0 2.5 3.1 3.5 3.0 2.1 1.2 1.1 1.2 0.9 1.1 0.6 0.4 0.1 0.1 0.1 0.1 0.2 0.2 0.1 0.3 0.2 0.3 0.5 0.7 0.7 0.6 0.4 0.3 0.2
0.9 1.0 0.6 0.7 0.6 0.7 1.0 1.5 2.6 4.2 5.2 5.3 4.7 3.3 1.8 1.3 1.2 1.6 2.1 2.9 2.2 0.5 0.6 0.5 0.3 0.3 0.3 0.2 0.3 0.3 0.5 0.8 1.0 1.2 0.9 0.8 0.5 0.3
1.4 1.2 1.0 0.9 0.8 0.8 0.9 1.5 1.8 2.5 3.4 4.2 4.3 2.7 1.8 1.7 2.9 4.3 4.3 4.7 3.6 1.2 1.3 1.4 0.5 0.5 0.3 0.3 0.3 0.4 0.6 0.7 0.9 1.1 1.1 1.0 0.7 0.7
1.2 1.0 1.1 0.9 0.8 1.3 2.1 2.5 1.6 1.2 1.3 1.4 1.9 1.8 1.9 1.8 3.7 6.2 6.2 4.7 2.3 1.0 1.0 2.6 0.9 0.7 0.2 0.3 0.3 0.4 0.6 0.8 1.3 1.1 1.2 1.1 1.0 0.8
1.0 0.9 1.2 1.0 1.1 2.4 4.0 3.8 2.0 0.9 0.6 1.1 1.6 1.7 1.6 1.7 2.2 5.6 7.4 7.9 5.7 1.7 1.4 2.5 1.8 1.5 1.1 0.8 0.4 0.7 0.9 0.9 1.3 1.1 1.6 1.4 1.2 1.0
1.1 1.0 1.1 1.2 1.9 3.3 4.1 4.1 3.1 1.4 1.6 1.3 1.1 0.8 0.9 0.9 1.3 3.9 8.7 13.6 10.8 6.3 2.1 3.7 4.2 4.8 5.9 2.4 1.9 1.5 1.3 1.2 1.3 1.2 1.5 1.4 1.5 1.7
2.0 1.5 0.7 1.5 2.7 3.2 3.3 2.8 2.9 3.4 2.9 2.1 1.6 1.5 1.4 1.4 1.3 2.2 4.9 12.5 16.9 11.2 3.7 8.1 10.0 7.2 10.9 7.9 3.4 2.5 2.5 2.8 2.4 1.7 1.5 1.6 1.6 2.1
2.8 1.6 1.3 2.2 2.6 2.4 2.2 2.1 2.5 2.7 2.6 2.8 2.7 2.4 2.6 2.8 2.9 3.2 4.2 6.5 9.8 11.2 7.5 10.7 16.8 13.1 15.8 12.8 6.7 4.4 3.0 3.9 4.6 3.5 2.5 1.7 1.7 1.7
2.1 2.4 2.4 2.3 2.2 2.1 1.7 2.2 2.6 3.1 3.9 5.0 4.5 3.4 3.5 3.9 4.1 5.0 5.2 5.5 6.2 6.5 8.4 8.9 12.7 14.0 16.7 16.4 11.7 8.9 9.1 6.0 5.9 5.4 4.0 3.0 2.4 2.4
2.9 2.2 2.0 1.6 1.8 2.1 2.1 2.4 2.6 3.5 5.6 7.1 6.3 4.9 4.5 5.4 7.1 8.5 10.1 10.5 12.5 10.5 9.1 8.8 9.3 13.4 16.1 13.0 13.9 12.9 12.2 12.4 9.1 7.2 5.7 4.4 2.9 2.6
3.5 2.9 2.9 2.8 2.9 3.0 2.8 2.7 3.1 3.6 5.5 6.7 7.5 8.2 7.9 9.1 10.8 12.6 14.2 14.3 14.3 12.3 10.0 7.9 7.5 8.1 10.3 12.0 13.5 12.6 12.4 12.4 9.8 7.1 7.2 7.2 4.1 3.0
4.2 4.7 4.1 3.8 4.0 3.7 4.0 3.9 3.8 4.9 6.6 8.4 9.7 10.8 12.7 13.5 13.8 13.5 14.4 15.2 14.2 11.2 9.7 8.0 8.2 9.2 8.4 7.5 9.6 12.6 12.9 12.7 9.0 7.9 8.2 10.0 7.6 4.3
5.0 5.0 4.4 4.6 4.8 5.1 5.3 6.1 5.7 5.8 7.7 10.4 12.9 14.8 15.5 15.9 15.9 15.3 14.0 13.1 11.7 9.2 8.3 7.4 8.7 14.1 15.3 10.1 6.9 8.9 14.7 14.9 10.6 8.9 8.6 9.4 9.6 6.6
5.0 6.2 6.2 5.7 5.9 6.6 7.2 8.1 8.9 9.3 10.3 13.0 14.6 15.9 17.2 18.0 16.6 14.2 12.2 11.5 10.7 8.7 7.0 5.7 7.2 13.1 19.9 17.8 13.7 10.5 10.2 15.1 16.8 14.9 9.6 7.0 6.4 4.4
6.8 7.4 7.5 7.3 6.7 7.8 8.8 10.3 11.8 13.5 14.1 16.1 16.9 17.3 17.8 18.1 15.3 11.6 10.1 8.8 9.4 9.6 8.9 6.3 5.3 7.1 12.0 16.0 14.7 10.1 10.6 9.1 11.7 18.1 17.7 15.9 12.4 9.1
6.2 6.7 7.2 7.5 7.8 9.3 10.5 12.0 13.5 14.4 15.6 16.6 17.5 17.2 16.2 15.2 13.4 10.2 9.2 9.5 9.1 8.6 7.8 6.1 5.0 6.5 10.6 15.2 13.5 9.7 9.7 9.5 7.5 6.4 9.1 14.3 23.2 23.5
6.4 7.2 8.1 8.4 9.2 10.5 12.3 13.4 14.0 14.8 16.3 17.7 17.6 16.2 14.2 12.1 9.7 9.2 9.3 9.4 9.5 8.8 8.1 7.6 6.8 7.0 8.3 10.1 11.6 10.2 9.1 8.6 8.1 8.7 10.5 7.3 7.7 9.1